WEATHER DATA

YESTERDAY
Time Temp. Dewp. Hum. Wind dir Wind speed Wind gust Bar. 1h Prec. 24h Prec.
00:08 20.8 11.2 54 0 0.6 1011.1 0.0000 0.0000
00:18 20.8 11.7 56 0 0.6 1011.1 0.0000 0.0000
00:29 20.8 12 57 0 0.6 1010.9 0.0000 0.0000
00:38 20.8 12 57 0 0.3 1010.8 0.0000 0.0000
00:48 20.8 11.7 56 0 0.3 1010.8 0.0000 0.0000
00:59 20.8 11.7 56 0 0.3 1010.6 0.0000 0.0000
01:09 20.7 11.9 57 0 0.6 1010.4 0.0000 0.0000
01:19 20.6 12.1 58 0 0.3 1010.5 0.0000 0.0000
01:28 20.6 12.3 59 0 0.3 1010.3 0.0000 0.0000
01:39 20.6 12.3 59 0 0.3 1010.3 0.0000 0.0000
01:49 20.5 12.5 60 0 0.3 1010.3 0.0000 0.0000
01:59 20.5 12.5 60 0 0.6 1010.4 0.0000 0.0000
02:09 20.4 12.6 61 0 0.6 1010.3 0.0000 0.0000
02:19 20.4 12.6 61 0 0.6 1009.9 0.0000 0.0000
02:29 20.3 12.8 62 0 0.3 1009.7 0.0000 0.0000
02:39 20.3 12.8 62 0 0.3 1009.4 0.0000 0.0000
02:50 20.3 12.8 62 0 0.3 1009.2 0.0000 0.0000
03:00 20.2 12.7 62 0 0.6 1009.2 0.0000 0.0000
03:09 20.2 12.9 63 0 0.6 1009.1 0.0000 0.0000
03:20 20.1 12.8 63 0 0.6 1008.8 0.0000 0.0000
03:30 20.1 12.8 63 0 0.3 1008.8 0.0000 0.0000
03:40 20.1 12.8 63 0 0.6 1008.7 0.0000 0.0000
03:50 20 13 64 0 0.3 1008.5 0.0000 0.0000
04:00 20 13 64 0 0.6 1008.2 0.0000 0.0000
04:10 19.9 12.9 64 0 0.3 1008 0.0000 0.0000
04:20 19.9 13.1 65 0 0.6 1007.9 0.0000 0.0000
04:30 19.9 13.1 65 0 0.3 1007.8 0.0000 0.0000
04:41 19.8 13.3 66 0 0.3 1007.6 0.0000 0.0000
04:50 19.8 13.3 66 0 0.6 1007.7 0.0000 0.0000
05:11 19.7 13.4 67 0 0.3 1007.4 0.0000 0.0000
05:21 19.7 13.6 68 225 0.3 0.6 1007.4 0.0000 0.0000
05:31 19.7 13.9 69 0 0.3 1007.4 0.0000 0.0000
05:41 19.6 14 70 0 0.3 1007.2 0.0000 0.0000
05:51 19.6 14 70 0 0.6 1007.2 0.0000 0.0000
06:01 19.6 14 70 0 0.3 1007.1 0.0000 0.0000
06:11 19.6 14.2 71 0 0.6 1007.1 0.0000 0.0000
06:22 19.6 14.2 71 0 0.3 1006.9 0.0000 0.0000
06:31 19.6 14.2 71 0 0.6 1007 0.0000 0.0000
06:41 19.7 14.3 71 0 0.3 1006.9 0.0000 0.0000
06:51 19.7 14.3 71 0 0.6 1006.7 0.0000 0.0000
07:02 19.7 14.3 71 0 0.3 1006.5 0.0000 0.0000
07:12 19.7 14.5 72 0 0.6 1006.5 0.0000 0.0000
07:21 19.7 14.7 73 0 0.3 1006.2 0.0000 0.0000
07:32 19.7 14.7 73 0 0.6 1006.4 0.0000 0.0000
07:42 19.7 14.7 73 315 0.3 0.8 1006.9 0.0000 0.0000
07:52 19.7 14.9 74 0 0.6 1007 0.0000 0.0000
08:02 19.6 15.1 75 0 0.6 1007 0.0000 0.0000
08:12 19.6 15.1 75 0 0.6 1006.8 0.0000 0.0000
08:22 19.7 15.4 76 0 0.6 1007.1 0.0000 0.0000
08:32 19.7 15.4 76 180 0.3 0.8 1006.8 0.0000 0.0000
08:43 19.7 15.6 77 0 0.6 1006.8 0.0000 0.0000
08:53 19.6 15.5 77 0.3 0.8 1006.6 0.0000 0.0000
09:02 19.6 15.7 78 0 0.6 1006.3 0.0000 0.0000
09:12 19.7 16 79 0 0.6 1006.2 0.0000 0.0000
09:23 19.8 16.1 79 0 0.6 1006.3 0.0000 0.0000
09:33 19.8 15.7 77 0 0.3 1005.8 0.0000 0.0000
09:48 19.8 15.7 77 0 0.6 1005.2 0.0000 0.0000
09:58 19.8 15.9 78 0 0.3 1005 0.0000 0.0000
10:08 19.8 15.9 78 0 0.6 1005.1 0.0000 0.0000
10:18 19.9 16 78 0 0.3 1005.1 0.0000 0.0000
10:28 19.9 16.2 79 0 0.6 1004.9 0.0000 0.0000
10:39 19.9 16.2 79 198 0.3 0.8 1004.6 0.0000 0.0000
10:48 19.8 16.1 79 270 0.3 0.6 1004.6 0.0000 0.0000
10:58 19.7 16 79 0 0.6 1004.7 0.0000 0.0000
11:09 19.5 15.6 78 225 0.3 0.8 1004.6 0.0000 0.0000
11:19 19.2 15.5 79 232 0.3 1.1 1004.2 0.0000 0.0000
11:29 19 15.5 80 270 0.3 1.1 1004.2 0.0000 0.0000
11:39 18.8 15.3 80 225 0.3 0.8 1004.2 0.0000 0.0000
11:49 18.5 15.2 81 198 0.3 0.8 1004.1 0.0000 0.0000
11:59 18.4 15.3 82 191 0.3 0.6 1004 0.0000 0.0000
12:09 18.2 15.1 82 201 0.3 1.7 1003.9 0.0000 0.0000
12:20 18.1 15.2 83 203 0.3 0.6 1003.9 0.0000 0.0000
12:29 18 15.1 83 210 0.3 0.6 1003.8 0.0000 0.0000
12:39 18 15.3 84 215 0.3 0.8 1003.6 0.0000 0.0000
12:49 18.1 15.4 84 270 0.3 1.4 1003.4 0.0000 0.0000
13:00 18.2 15.5 84 225 0.3 0.6 1003.2 0.0000 0.0000
13:10 18.3 15.7 85 270 0.3 0.8 1003 0.0000 0.0000
13:19 18.4 15.8 85 270 0.3 0.8 1002.8 0.0000 0.0000
13:30 18.6 16 85 270 0.3 0.8 1002.7 0.0000 0.0000
13:40 18.7 16.1 85 225 0.3 0.6 1002.6 0.0000 0.0000
13:50 19 16.6 86 192 0.3 1.1 1002.5 0.0000 0.0000
14:00 19.2 16.8 86 198 0.3 0.6 1002.4 0.0000 0.0000
14:10 19.6 17.2 86 270 0.3 0.8 1002.4 0.0000 0.0000
14:20 20 17.4 85 0 0.8 1002.3 0.0000 0.0000
14:30 20.3 17.3 83 176 0.3 1.4 1002.2 0.0000 0.0000
14:41 20.5 17.3 82 180 0.3 0.8 1002.3 0.0000 0.0000
14:51 20.8 17.4 81 0 0.8 1002.1 0.0000 0.0000
15:00 21.3 17.9 81 194 0.3 0.8 1002.1 0.0000 0.0000
15:10 21.6 18 80 315 0.3 0.8 1002 0.0000 0.0000
15:21 22.2 19 82 270 0.3 0.6 1001.8 0.0000 0.0000
15:31 22.7 19.1 80 315 0.3 0.8 1001.7 0.0000 0.0000
15:41 23.3 19.2 78 189 0.3 1.4 1001.7 0.0000 0.0000
15:51 23.4 19.3 78 210 0.3 1.1 1001.5 0.0000 0.0000
16:01 24.1 19.4 75 169 0.6 1.7 1001.4 0.0000 0.0000
16:11 24.3 19.6 75 161 0.3 1.7 1001.4 0.0000 0.0000
16:21 24.4 19.7 75 201 0.3 0.8 1001.2 0.0000 0.0000
16:32 24.4 19.7 75 174 0.6 1.7 1001.1 0.0000 0.0000
16:41 24.2 19.3 74 170 0.6 1.7 1001.2 0.0000 0.0000
16:51 24.4 19.7 75 172 0.6 1.7 1001.1 0.0000 0.0000
17:02 24.4 19 72 162 0.6 1.1 1001.1 0.0000 0.0000
17:12 24.1 19.4 75 182 0.3 1.4 1001 0.0000 0.0000
17:22 24.9 19.7 73 178 0.6 1.4 1001 0.0000 0.0000
17:31 26.7 20.5 69 225 0.3 0.6 1001.1 0.0000 0.0000
17:42 27.9 21 66 233 0.3 0.8 1001.1 0.0000 0.0000
17:52 28 20.3 63 315 0.3 1.4 1001 0.0000 0.0000
18:02 27.7 19.5 61 281 0.8 2.8 1001.1 0.0000 0.0000
18:12 28.1 19.1 58 329 0.8 1.9 1000.9 0.0000 0.0000
18:22 27.8 18.8 58 315 0.8 4.2 1001 0.0000 0.0000
18:32 27.5 18.2 57 167 0.8 3.1 1001.3 0.0000 0.0000
18:42 27.1 18.4 59 201 0.8 2.5 1001.1 0.0000 0.0000
18:53 27 18 58 336 1.7 5.6 1001.3 0.0000 0.0000
19:02 26.4 17.7 59 335 1.4 5.8 1001.5 0.0000 0.0000
19:12 25.6 17.3 60 333 1.9 6.4 1001.6 0.0000 0.0000
19:23 24.8 17 62 321 1.1 3.1 1001.8 0.0000 0.0000
19:33 24.4 16.9 63 339 1.4 5.3 1002 0.0000 0.0000
19:43 24 16.8 64 336 1.7 5.3 1002.2 0.0000 0.0000
19:52 23.4 16.2 64 338 2.5 6.4 1002.3 0.0000 0.0000
20:03 22.9 16.2 66 337 1.9 4.7 1002.6 0.0000 0.0000
20:13 22.5 16.1 67 327 0.8 2.8 1002.5 0.0000 0.0000
20:23 22.2 16 68 337 1.7 4.7 1002.6 0.0000 0.0000
20:33 21.9 16 69 336 1.1 4.2 1002.7 0.0000 0.0000
20:43 21.6 15.7 69 343 2.2 5.6 1002.8 0.0000 0.0000
20:56 21.2 15.3 69 326 1.9 5 1002.9 0.0000 0.0000
21:15 20.7 15.3 71 333 1.4 4.2 1002.9 0.0000 0.0000
21:26 20.5 15.1 71 336 1.4 5 1003.2 0.0000 0.0000
21:36 20.3 14.9 71 333 1.7 4.2 1003.3 0.0000 0.0000
21:46 20.2 15 72 330 1.4 4.2 1003.5 0.0000 0.0000
21:55 20.1 14.9 72 336 1.7 4.7 1003.7 0.0000 0.0000
22:06 19.9 14.7 72 335 1.9 7.2 1003.9 0.0000 0.0000
22:16 19.6 14.6 73 332 1.9 3.9 1003.9 0.0000 0.0000
22:26 19.3 14.3 73 337 1.4 4.7 1003.9 0.0000 0.0000
22:42 19 14.3 74 338 1.9 5.6 1004.2 0.0000 0.0000
22:51 18.8 14.3 75 335 1.7 4.4 1004.3 0.0000 0.0000
23:01 18.7 14.2 75 340 1.7 4.7 1004.4 0.0000 0.0000
23:12 18.5 14.2 76 330 1.7 5.3 1004.4 0.0000 0.0000
23:22 18.4 14.3 77 341 0.8 2.8 1004.5 0.0000 0.0000
23:31 18.3 14.2 77 334 1.4 3.3 1004.3 0.0000 0.0000
23:41 18.3 14.2 77 331 1.1 3.1 1004.6 0.0000 0.0000
23:52 18.2 14.1 77 336 0.8 2.5 1004.7 0.0000 0.0000

DAY STATISTIC

2022-07-05
TEMPERATURE
AVERAGE
20.9
HIGH
28.1
18:12
LOW
18.0
12:29
PRESSURE
AVERAGE
1005.0
HIGH
1011.1
00:08
LOW
1000.9
18:12
DEWPOINT
AVERAGE
15.5
HIGH
21.0
17:42
LOW
11.2
00:08
HUMIDITY
AVERAGE
72
HIGH
86
13:50
LOW
54
00:08
WIND SPEED
AVERAGE
0.5
HIGH
2.5
19:52
WIND GUST
AVERAGE
1.6
HIGH
7.2
22:06
WIND DIRECTION
PREVAILING
NW
20.9%
N
4.3
NE
0.0
E
0.0
SE
0.0
S
16.5
SW
7.9
W
6.5
NW
20.9
PRECIPITATION
RAIN HOUR
0.0
RAIN DAY
0.0
TEMPERATURE (°C)
LOW
18.0
HIGH
28.1
AVERAGE
20.9
PRESSURE (hpa)
LOW
1000.9
HIGH
1011.1
AVERAGE
1005.0
DEVICE